Location: Chełm
(51.1339°N, 23.4725°E)
Time: 01:53:56
(UTC+01:00)

ISS - Pass Details

Date: 28 January 2019
Orbit: 403 x 411 km, 51.6° (Epoch: 20 February)

Event Time Altitude Azimuth Distance (km) Brightness Sun altitude
Rises 19:08:21 0° 271° (W) 2,339 1.3 -28.0°
Reaches altitude 10° 19:10:26 10° 272° (W) 1,479 0.0 -28.3°
Enters shadow 19:11:28 19° 274° (W) 1,070 -0.9 -28.4°
